Regional Weather Roundup
Issued by NWS Charleston, SC

Current Version | Previous Version | Text Only | Print | Product List | Glossary Off
Versions: 1 2 3 4 5 6 7 8 9 10 11 12 13 14 15 16 17 18 19 20 21 22 23 24 25 26 27 28 29 30 31 32 33 34 35 36 37 38 39 40 41 42 43 44 45 46 47 48 49 50

000
ASUS42 KCHS 170112
RWRCHS

Regional Weather Roundup
National Weather Service Charleston SC
800 PM EST TUE JAN 16 2018

NOTE: "fair" indicates few or no clouds below 12,000 feet with no
significant weather and/or obstructions to visibility.

Not all stations are quality controlled. Use data with caution,
especially dewpoint observations.

SCZ027-030-031-034>040-042>050-170200-
...Southeast South Carolina...

CITY           SKY/WX    TMP DP  RH WIND       PRES   REMARKS
N Charleston   FAIR      43  34  70 S3        30.36F
Waterfront Prk NOT AVBL
Mount Pleasant FAIR      37  36  93 CALM      30.37S
Johns Island   FAIR      39  36  87 CALM      30.36F
Pinopolis        N/A     46  36  66 S5        30.28S
Moncks Corner  FAIR      37  32  81 CALM      30.35F
Summerville    FAIR      41  32  70 CALM      30.36S
Beaufort MCAS  FAIR      41  37  86 CALM      30.35F
Beaufort Arpt  FAIR      41  34  75 CALM      30.35F
Hilton Head Is CLEAR     39  36  87 CALM      30.36F
Walterboro     FAIR      41  32  70 CALM      30.36S
Allendale      FAIR      41  34  75 CALM      30.33F

...Southern Midlands and Pee Dee...

CITY           SKY/WX    TMP DP  RH WIND       PRES   REMARKS
Georgetown     FAIR      36  36 100 CALM      30.37F
Kingstree      FAIR      36  32  87 CALM      30.36R
Orangeburg     FAIR      41  32  70 CALM      30.34S
Barnwell         N/A     45  36  70 CALM      30.33F
Aiken          MOCLDY    41  32  70 CALM      30.35S
Manning        FAIR      37   5  25 MISG      30.35S
Columbia       MOCLDY    43  34  70 CALM      30.33S
Sumter         MOCLDY    41  29  62 CALM      30.32S
Florence       FAIR      40  29  64 CALM      30.35S
Myrtle Beach   FAIR      39  32  76 CALM      30.37F
N Myrtle Beach FAIR      38  33  82 CALM      30.36S

$$

GAZ063-065-086>088-099>101-113>116-118-119-134>141-150-170200-
...Southeast Georgia...

CITY           SKY/WX    TMP DP  RH WIND       PRES   REMARKS
Savannah Arpt  MOCLDY    44  32  62 SE5       30.35F
Hunter AAF     FAIR      43  33  69 SE5       30.32F
Fort Stewart   FAIR      44  33  64 SE3       30.33S
Statesboro     FAIR      39  35  83 CALM      30.34S
Sylvania       FAIR      41  38  89 CALM      30.35S
Claxton        FAIR      42  39  89 CALM      30.34S

...CSRA, Central and far Southeast Georgia...

CITY           SKY/WX    TMP DP  RH WIND       PRES   REMARKS
Thomson        CLOUDY    44  35  69 CALM      30.37S
Augusta-Bush   MOCLDY    43  34  70 CALM      30.32S
Augusta-Daniel CLOUDY    51  31  46 S3        30.32S
Swainsboro     FAIR      43  37  81 CALM      30.33S
Vidalia        FAIR      45  37  76 CALM      30.33F
Eastman        FAIR      46  31  57 CALM      30.35F
Hazlehurst     FAIR      45  36  69 CALM      30.32S
Alma           FAIR      43  37  79 N3        30.33S
Waycross       FAIR      45  36  69 CALM      30.33S
Jesup          FAIR      46  39  76 CALM      30.34F
Baxley         FAIR      41  37  87 CALM      30.33S
Brunswick      FAIR      41  37  87 CALM      30.36S
Saint Simons   FAIR      44  39  82 NE6       30.34S

$$

SCZ027-028-034-036>038-045-046-048>050-GAZ119-141-170200-
...Lake and Supplemental Coastal Observations...

STATION/POSITION TIME  TEMP    WIND        PRES    WAVE   SWELL
                       AIR SEA DIR/SP/G            HT/PER HT/PER/DIR
                 (UTC) (F)     (DEG/KT/KT) (MB)    (FT/S) (FT/S/D)
Winyah Bay       NOT AVBL
Lake Murray      0020   45        CALM     1026.1F
ACE Basin NERRS  2345   40        CALM     1028.0
Fort Pulaski     0024   45 46   90/  3/  4 1028.1
Sapelo Island    0000   43      50/  4     1028.0

$$

ANZ835-935-AMZ111-154-330-350-352-354-370-450-454-472-170200-
...C-MAN and Buoy Observations...

STATION/POSITION TIME  TEMP    WIND        PRES    WAVE   SWELL
                       AIR SEA DIR/SP/G            HT/PER HT/PER/DIR
                 (UTC) (F)     (DEG/KT/KT) (MB)    (FT/S) (FT/S/D)
Buoy 41004       0050   55 69  340/  6/  8 1027.3S   4/11   5/ 90/11
Buoy 41008       2350   52 52   50/  8/ 10 1027.5    3/ 9   3/110/ 9
Folly Beach CMAN 0000   46        CALM     1028.6R
Capers Nearshore 0008   43 48   20/  2/  4 1027.8R
Fripp Nearshore  0008   43 47   40/  2/  4 1027.0R


STATION/POSITION TIME  TEMP    WIND        PRES    WAVE   SWELL
                       AIR SEA DIR/SP/G            HT/PER HT/PER/DIR
                 (UTC) (F)     (DEG/KT/KT) (MB)    (FT/S) (FT/S/D)
5E St. Marys GA  0030      51                N/A     4/10   2/ 90/11
Frying Pan Buoy  0050   51 60   20/  4/  6 1027.7S   4/11   3/110/11
Buoy 41025       0050   47 66  360/ 10/ 12 1028.0S   6/11   7/ 50/11
Cape Lookout NC  0000          340/  5/  6 1028.0F
Buoy 41002       2350   65 71   70/ 10/ 12 1025.1    8/ 9   8/ 70/ 9
Buoy 41010       NOT AVBL
St Augustine FL  0100   49 51  340/  9/ 10 1026.7S


$$




USA.gov is the U.S. government's official web portal to all federal, state and local government web resources and services.